This is the latest recevied weather packets stored in our database for station/object KI5GCD-13. If no packets are shown the sender has not sent any weather packets the latest 10 day(s).
| Time | Temp. | Humidity | Pressure | Rain* | Wind** | Luminosity | Snow |
|---|---|---|---|---|---|---|---|
| 1778111988 | 15.56° C | 54% | 1012.6 hPa | 0 mm | 0.89 m/s, 60° | - | - |
| 1778111688 | 15.56° C | 53% | 1012.4 hPa | 0 mm | 0.89 m/s, 1° | - | - |
| 1778111387 | 16.11° C | 54% | 1012.6 hPa | 0 mm | 1.79 m/s, 52° | - | - |
| 1778111088 | 16.11° C | 52% | 1012.3 hPa | 0 mm | 2.24 m/s, 350° | - | - |
| 1778110787 | 16.11° C | 53% | 1012.4 hPa | 0 mm | 1.34 m/s, 18° | - | - |
| 1778110487 | 16.11° C | 54% | 1012.3 hPa | 0 mm | 0.89 m/s, 307° | - | - |
| 1778110187 | 16.11° C | 52% | 1012.1 hPa | 0 mm | 1.34 m/s, 96° | - | - |
| 1778109888 | 16.11° C | 52% | 1012.3 hPa | 0 mm | 0.89 m/s, 278° | - | - |
| 1778109587 | 16.11° C | 52% | 1012.1 hPa | 0 mm | 1.79 m/s, 95° | - | - |
| 1778109287 | 16.11° C | 54% | 1012.2 hPa | 0 mm | 2.24 m/s, 72° | - | - |
| 1778108988 | 16.67° C | 53% | 1011.9 hPa | 0 mm | 3.13 m/s, 79° | - | - |
| 1778108687 | 16.11° C | 53% | 1011.7 hPa | 0 mm | 0.89 m/s, 80° | - | - |
| 1778108387 | 15.56° C | 53% | 1011.8 hPa | 0 mm | 0.45 m/s, 168° | - | - |
| 1778108087 | 16.67° C | 52% | 1011.7 hPa | 0 mm | 1.79 m/s, 51° | - | - |
| 1778107788 | 16.67° C | 54% | 1011.7 hPa | 0 mm | 0.45 m/s, 268° | - | - |
| 1778107488 | 16.11° C | 53% | 1011.7 hPa | 0 mm | 0.89 m/s, 301° | - | - |
| 1778107187 | 16.67° C | 52% | 1011.5 hPa | 0 mm | 2.68 m/s, 302° | - | - |
| 1778106887 | 16.11° C | 54% | 1011.7 hPa | 0 mm | 0.45 m/s, 269° | - | - |
| 1778106587 | 16.11° C | 54% | 1011.6 hPa | 0 mm | 0.89 m/s, 37° | - | - |
| 1778106287 | 16.11° C | 56% | 1011.5 hPa | 0 mm | 1.79 m/s, 294° | - | - |
| 1778105987 | 16.11° C | 53% | 1011.7 hPa | 0 mm | 3.13 m/s, 37° | - | - |
| 1778105688 | 16.11° C | 53% | 1011.6 hPa | 0 mm | 1.34 m/s, 314° | - | - |
| 1778105387 | 17.22° C | 57% | 1011.5 hPa | 0 mm | 0.45 m/s, 198° | - | - |
| 1778105087 | 16.11° C | 53% | 1011.6 hPa | 0 mm | 0.45 m/s, 265° | - | - |
| 1778104787 | 15.56° C | 55% | 1011.7 hPa | 0 mm | 0.89 m/s, 356° | - | - |
* Rain latest hour (hover to see other rain measurements)
** Current wind speed in m/s (hover to see current wind gust speed)